DL1MMS-10 Weather Reports


Display with metric or nautical units.
time (UTC)temp
F
wind
direction
speed
MPH
gust
MPH
rain 1hr
in
rain 24hr
in
rain mn
in
humidity
%
barometer
mb
20260904114525 96 0 0.0 0.0 0.00 0.00 0.00 26 1019.0
20260904114025 96 0 0.0 0.0 0.00 0.00 0.00 27 1019.1
20260904113525 95 0 0.0 0.0 0.00 0.00 0.00 26 1019.2
20260904113025 96 0 0.0 0.0 0.00 0.00 0.00 26 1019.3
20260904112524 96 0 0.0 0.0 0.00 0.00 0.00 26 1019.4
20260904112024 97 0 0.0 0.0 0.00 0.00 0.00 26 1019.4
20260904111524 97 0 0.0 0.0 0.00 0.00 0.00 27 1019.5
20260904111023 96 0 0.0 0.0 0.00 0.00 0.00 27 1019.5
20260904110523 96 0 0.0 0.0 0.00 0.00 0.00 28 1019.5
20260904110023 95 0 0.0 0.0 0.00 0.00 0.00 29 1019.5
20260904105523 95 0 0.0 0.0 0.00 0.00 0.00 29 1019.7
20260904105022 96 0 0.0 0.0 0.00 0.00 0.00 29 1019.6
20260904104522 95 0 0.0 0.0 0.00 0.00 0.00 30 1019.7
20260904104022 94 0 0.0 0.0 0.00 0.00 0.00 31 1019.8
20260904103521 93 0 0.0 0.0 0.00 0.00 0.00 31 1020.0
20260904103021 92 0 0.0 0.0 0.00 0.00 0.00 31 1019.9
20260904102521 92 0 0.0 0.0 0.00 0.00 0.00 31 1020.0
20260904102021 91 0 0.0 0.0 0.00 0.00 0.00 32 1020.0
20260904101520 91 0 0.0 0.0 0.00 0.00 0.00 34 1020.1
20260904101020 89 0 0.0 0.0 0.00 0.00 0.00 36 1020.2
20260904100520 87 0 0.0 0.0 0.00 0.00 0.00 38 1020.4
20260904100020 84 0 0.0 0.0 0.00 0.00 0.00 41 1020.5
20260904095519 79 0 0.0 0.0 0.00 0.00 0.00 47 1020.6
20260904095019 76 0 0.0 0.0 0.00 0.00 0.00 48 1020.7
20260904094519 76 0 0.0 0.0 0.00 0.00 0.00 50 1020.8
20260904094018 75 0 0.0 0.0 0.00 0.00 0.00 50 1020.8
20260904093518 74 0 0.0 0.0 0.00 0.00 0.00 52 1020.9
20260904093018 74 0 0.0 0.0 0.00 0.00 0.00 53 1021.0
20260904092517 73 0 0.0 0.0 0.00 0.00 0.00 53 1021.0
20260904092017 73 0 0.0 0.0 0.00 0.00 0.00 53 1021.0
20260904091517 73 0 0.0 0.0 0.00 0.00 0.00 54 1021.1
20260904091017 72 0 0.0 0.0 0.00 0.00 0.00 55 1021.3
20260904090516 72 0 0.0 0.0 0.00 0.00 0.00 55 1021.2
20260904090016 71 0 0.0 0.0 0.00 0.00 0.00 56 1021.3
20260904085516 71 0 0.0 0.0 0.00 0.00 0.00 56 1021.3
20260904085016 71 0 0.0 0.0 0.00 0.00 0.00 57 1021.4
20260904084515 71 0 0.0 0.0 0.00 0.00 0.00 57 1021.4
20260904084015 70 0 0.0 0.0 0.00 0.00 0.00 58 1021.6
20260904083515 70 0 0.0 0.0 0.00 0.00 0.00 59 1021.4
20260904083014 70 0 0.0 0.0 0.00 0.00 0.00 59 1021.4
20260904082514 69 0 0.0 0.0 0.00 0.00 0.00 59 1021.5
20260904082014 69 0 0.0 0.0 0.00 0.00 0.00 60 1021.3
20260904081514 69 0 0.0 0.0 0.00 0.00 0.00 62 1021.4
20260904081013 68 0 0.0 0.0 0.00 0.00 0.00 64 1021.5
20260904080513 67 0 0.0 0.0 0.00 0.00 0.00 66 1021.5
20260904080013 67 0 0.0 0.0 0.00 0.00 0.00 67 1021.5
20260904075512 66 0 0.0 0.0 0.00 0.00 0.00 68 1021.6
20260904075012 66 0 0.0 0.0 0.00 0.00 0.00 69 1021.5
20260904074512 65 0 0.0 0.0 0.00 0.00 0.00 71 1021.6
20260904074012 65 0 0.0 0.0 0.00 0.00 0.00 72 1021.6
20260904073511 64 0 0.0 0.0 0.00 0.00 0.00 73 1021.7
20260904073011 64 0 0.0 0.0 0.00 0.00 0.00 73 1021.6
20260904072511 63 0 0.0 0.0 0.00 0.00 0.00 73 1021.7
20260904072010 63 0 0.0 0.0 0.00 0.00 0.00 74 1021.8
20260904071510 63 0 0.0 0.0 0.00 0.00 0.00 74 1021.8
20260904071010 62 0 0.0 0.0 0.00 0.00 0.00 75 1021.7
20260904070510 61 0 0.0 0.0 0.00 0.00 0.00 76 1021.8
20260904070009 61 0 0.0 0.0 0.00 0.00 0.00 77 1021.5
20260904065509 60 0 0.0 0.0 0.00 0.00 0.00 77 1021.7
20260904065009 60 0 0.0 0.0 0.00 0.00 0.00 78 1021.6
20260904064508 59 0 0.0 0.0 0.00 0.00 0.00 79 1021.7
20260904064008 59 0 0.0 0.0 0.00 0.00 0.00 80 1021.7
20260904063508 58 0 0.0 0.0 0.00 0.00 0.00 80 1021.6
20260904063008 57 0 0.0 0.0 0.00 0.00 0.00 80 1021.6
20260904062507 57 0 0.0 0.0 0.00 0.00 0.00 81 1021.6
20260904062007 57 0 0.0 0.0 0.00 0.00 0.00 81 1021.6
20260904061507 56 0 0.0 0.0 0.00 0.00 0.00 81 1021.6
20260904061006 56 0 0.0 0.0 0.00 0.00 0.00 81 1021.7
20260904060506 55 0 0.0 0.0 0.00 0.00 0.00 81 1021.7
20260904060006 55 0 0.0 0.0 0.00 0.00 0.00 81 1021.8
20260904055506 55 0 0.0 0.0 0.00 0.00 0.00 81 1021.8
20260904055005 54 0 0.0 0.0 0.00 0.00 0.00 82 1021.8
20260904054505 54 0 0.0 0.0 0.00 0.00 0.00 82 1021.8
20260904054005 54 0 0.0 0.0 0.00 0.00 0.00 82 1021.8
20260904053504 53 0 0.0 0.0 0.00 0.00 0.00 82 1021.8
20260904053004 53 0 0.0 0.0 0.00 0.00 0.00 82 1021.7
20260904052504 53 0 0.0 0.0 0.00 0.00 0.00 82 1021.7
20260904052004 53 0 0.0 0.0 0.00 0.00 0.00 82 1021.8
20260904051503 53 0 0.0 0.0 0.00 0.00 0.00 81 1022.0
20260904051003 53 0 0.0 0.0 0.00 0.00 0.00 81 1022.0
20260904050503 53 0 0.0 0.0 0.00 0.00 0.00 81 1021.8
20260904050002 53 0 0.0 0.0 0.00 0.00 0.00 80 1021.9
20260904045502 53 0 0.0 0.0 0.00 0.00 0.00 80 1022.0
20260904045002 53 0 0.0 0.0 0.00 0.00 0.00 80 1021.9
20260904044502 53 0 0.0 0.0 0.00 0.00 0.00 80 1021.9
20260904044001 53 0 0.0 0.0 0.00 0.00 0.00 80 1021.9
20260904043502 54 0 0.0 0.0 0.00 0.00 0.00 80 1021.9
20260904043001 54 0 0.0 0.0 0.00 0.00 0.00 80 1022.0
20260904042500 54 0 0.0 0.0 0.00 0.00 0.00 79 1022.1
20260904042000 54 0 0.0 0.0 0.00 0.00 0.00 79 1022.1
20260904041500 54 0 0.0 0.0 0.00 0.00 0.00 79 1022.1
20260904041000 55 0 0.0 0.0 0.00 0.00 0.00 79 1022.2
20260904040459 55 0 0.0 0.0 0.00 0.00 0.00 79 1022.2
20260904035959 55 0 0.0 0.0 0.00 0.00 0.00 78 1022.3
20260904035459 55 0 0.0 0.0 0.00 0.00 0.00 78 1022.3
20260904034958 55 0 0.0 0.0 0.00 0.00 0.00 78 1022.3
20260904034458 55 0 0.0 0.0 0.00 0.00 0.00 78 1022.2
20260904033958 55 0 0.0 0.0 0.00 0.00 0.00 77 1022.3
20260904033458 55 0 0.0 0.0 0.00 0.00 0.00 77 1022.2
20260904032957 55 0 0.0 0.0 0.00 0.00 0.00 78 1022.1
20260904032457 56 0 0.0 0.0 0.00 0.00 0.00 78 1022.1
20260904031957 56 0 0.0 0.0 0.00 0.00 0.00 77 1022.3
20260904031457 56 0 0.0 0.0 0.00 0.00 0.00 77 1022.3
20260904030956 56 0 0.0 0.0 0.00 0.00 0.00 77 1022.4
20260904030456 56 0 0.0 0.0 0.00 0.00 0.00 77 1022.3
20260904025956 57 0 0.0 0.0 0.00 0.00 0.00 76 1022.3
20260904025455 57 0 0.0 0.0 0.00 0.00 0.00 76 1022.2
20260904024955 57 0 0.0 0.0 0.00 0.00 0.00 76 1022.2
20260904024455 57 0 0.0 0.0 0.00 0.00 0.00 76 1022.2
20260904023955 57 0 0.0 0.0 0.00 0.00 0.00 76 1022.3
20260904023454 57 0 0.0 0.0 0.00 0.00 0.00 76 1022.4
20260904022954 57 0 0.0 0.0 0.00 0.00 0.00 76 1022.4
20260904022454 57 0 0.0 0.0 0.00 0.00 0.00 76 1022.4
20260904021953 57 0 0.0 0.0 0.00 0.00 0.00 76 1022.4
20260904021453 57 0 0.0 0.0 0.00 0.00 0.00 76 1022.5
20260904020953 57 0 0.0 0.0 0.00 0.00 0.00 76 1022.4
20260904020453 57 0 0.0 0.0 0.00 0.00 0.00 76 1022.5
20260904015952 57 0 0.0 0.0 0.00 0.00 0.00 76 1022.6
20260904015452 57 0 0.0 0.0 0.00 0.00 0.00 76 1022.6
20260904014952 57 0 0.0 0.0 0.00 0.00 0.00 76 1022.6
20260904014451 57 0 0.0 0.0 0.00 0.00 0.00 76 1022.6
20260904013951 58 0 0.0 0.0 0.00 0.00 0.00 76 1022.7
20260904013451 58 0 0.0 0.0 0.00 0.00 0.00 76 1022.8
20260904012951 58 0 0.0 0.0 0.00 0.00 0.00 76 1023.0
20260904012450 58 0 0.0 0.0 0.00 0.00 0.00 76 1022.9
20260904011950 59 0 0.0 0.0 0.00 0.00 0.00 76 1023.1
20260904011450 59 0 0.0 0.0 0.00 0.00 0.00 76 1023.0
20260904010949 59 0 0.0 0.0 0.00 0.00 0.00 76 1022.9
20260904010449 59 0 0.0 0.0 0.00 0.00 0.00 76 1022.9
20260904005949 60 0 0.0 0.0 0.00 0.00 0.00 76 1022.7
20260904005449 60 0 0.0 0.0 0.00 0.00 0.00 76 1022.9
20260904004948 60 0 0.0 0.0 0.00 0.00 0.00 76 1022.7
20260904004448 60 0 0.0 0.0 0.00 0.00 0.00 76 1022.7
20260904003948 60 0 0.0 0.0 0.00 0.00 0.00 76 1022.7
20260904003447 60 0 0.0 0.0 0.00 0.00 0.00 76 1022.9
20260904002947 60 0 0.0 0.0 0.00 0.00 0.00 76 1022.9
20260904002447 60 0 0.0 0.0 0.00 0.00 0.00 76 1022.9
20260904001947 60 0 0.0 0.0 0.00 0.00 0.00 76 1022.9
20260904001446 61 0 0.0 0.0 0.00 0.00 0.00 76 1022.9
20260904000946 61 0 0.0 0.0 0.00 0.00 0.00 76 1023.1
20260904000447 61 0 0.0 0.0 0.00 0.00 0.00 76 1023.0
20260903235945 61 0 0.0 0.0 0.00 0.00 0.00 76 1023.2
20260903235445 61 0 0.0 0.0 0.00 0.00 0.00 76 1023.4
20260903234945 61 0 0.0 0.0 0.00 0.00 0.00 75 1023.3
20260903234445 61 0 0.0 0.0 0.00 0.00 0.00 74 1023.4
20260903233944 61 0 0.0 0.0 0.00 0.00 0.00 74 1023.4
20260903233444 61 0 0.0 0.0 0.00 0.00 0.00 74 1023.4
20260903232944 61 0 0.0 0.0 0.00 0.00 0.00 75 1023.3
20260903232443 61 0 0.0 0.0 0.00 0.00 0.00 75 1023.4
20260903231943 61 0 0.0 0.0 0.00 0.00 0.00 75 1023.5
20260903231443 61 0 0.0 0.0 0.00 0.00 0.00 75 1023.5
20260903230943 61 0 0.0 0.0 0.00 0.00 0.00 76 1023.4
20260903230442 61 0 0.0 0.0 0.00 0.00 0.00 76 1023.5
20260903225942 61 0 0.0 0.0 0.00 0.00 0.00 76 1023.5
20260903225442 61 0 0.0 0.0 0.00 0.00 0.00 76 1023.4
20260903224941 60 0 0.0 0.0 0.00 0.00 0.00 76 1023.4
20260903224441 60 0 0.0 0.0 0.00 0.00 0.00 76 1023.6
20260903223941 60 0 0.0 0.0 0.00 0.00 0.00 77 1023.6
20260903223441 60 0 0.0 0.0 0.00 0.00 0.00 76 1023.5
20260903222940 60 0 0.0 0.0 0.00 0.00 0.00 76 1023.6
20260903222440 60 0 0.0 0.0 0.00 0.00 0.00 76 1023.8
20260903221940 60 0 0.0 0.0 0.00 0.00 0.00 76 1023.8
20260903221440 60 0 0.0 0.0 0.00 0.00 0.00 76 1023.7
20260903220939 60 0 0.0 0.0 0.00 0.00 0.00 76 1023.8
20260903220439 60 0 0.0 0.0 0.00 0.00 0.00 76 1023.7
20260903215939 60 0 0.0 0.0 0.00 0.00 0.00 76 1023.7
20260903215438 60 0 0.0 0.0 0.00 0.00 0.00 76 1023.6
20260903214938 60 0 0.0 0.0 0.00 0.00 0.00 76 1023.7
20260903214438 60 0 0.0 0.0 0.00 0.00 0.00 76 1023.6
20260903213938 60 0 0.0 0.0 0.00 0.00 0.00 76 1023.5
20260903213437 59 0 0.0 0.0 0.00 0.00 0.00 77 1023.5
20260903212937 59 0 0.0 0.0 0.00 0.00 0.00 77 1023.4
20260903212437 59 0 0.0 0.0 0.00 0.00 0.00 77 1023.4
20260903211936 59 0 0.0 0.0 0.00 0.00 0.00 77 1023.3
20260903211436 59 0 0.0 0.0 0.00 0.00 0.00 77 1023.2
20260903210936 59 0 0.0 0.0 0.00 0.00 0.00 76 1023.1
20260903210436 59 0 0.0 0.0 0.00 0.00 0.00 76 1023.1
20260903205935 59 0 0.0 0.0 0.00 0.00 0.00 75 1023.3
20260903205435 59 0 0.0 0.0 0.00 0.00 0.00 75 1023.4
20260903204935 59 0 0.0 0.0 0.00 0.00 0.00 75 1023.4
20260903204434 59 0 0.0 0.0 0.00 0.00 0.00 75 1023.5
20260903203934 59 0 0.0 0.0 0.00 0.00 0.00 74 1023.6
20260903203434 59 0 0.0 0.0 0.00 0.00 0.00 74 1023.5
20260903202934 60 0 0.0 0.0 0.00 0.00 0.00 73 1023.5
20260903202433 60 0 0.0 0.0 0.00 0.00 0.00 73 1023.4
20260903201933 60 0 0.0 0.0 0.00 0.00 0.00 73 1023.4
20260903201433 60 0 0.0 0.0 0.00 0.00 0.00 72 1023.1
20260903200932 61 0 0.0 0.0 0.00 0.00 0.00 72 1023.1
20260903200432 61 0 0.0 0.0 0.00 0.00 0.00 71 1023.0
20260903195932 61 0 0.0 0.0 0.00 0.00 0.00 71 1023.3
20260903195432 61 0 0.0 0.0 0.00 0.00 0.00 71 1023.2
20260903194931 62 0 0.0 0.0 0.00 0.00 0.00 70 1023.2
20260903194431 62 0 0.0 0.0 0.00 0.00 0.00 70 1023.1
20260903193931 62 0 0.0 0.0 0.00 0.00 0.00 69 1023.0
20260903193430 62 0 0.0 0.0 0.00 0.00 0.00 69 1023.0
20260903192930 63 0 0.0 0.0 0.00 0.00 0.00 69 1022.7
20260903192430 63 0 0.0 0.0 0.00 0.00 0.00 68 1022.8
20260903191930 64 0 0.0 0.0 0.00 0.00 0.00 68 1022.9
20260903191429 64 0 0.0 0.0 0.00 0.00 0.00 67 1022.9
20260903190929 64 0 0.0 0.0 0.00 0.00 0.00 67 1022.8
20260903190429 65 0 0.0 0.0 0.00 0.00 0.00 66 1023.0
20260903185928 65 0 0.0 0.0 0.00 0.00 0.00 66 1022.8
20260903185428 65 0 0.0 0.0 0.00 0.00 0.00 66 1022.7
20260903184928 66 0 0.0 0.0 0.00 0.00 0.00 64 1022.8
20260903184428 66 0 0.0 0.0 0.00 0.00 0.00 64 1022.8
20260903183927 67 0 0.0 0.0 0.00 0.00 0.00 63 1022.8
20260903183427 67 0 0.0 0.0 0.00 0.00 0.00 63 1022.8
20260903182927 67 0 0.0 0.0 0.00 0.00 0.00 62 1022.9
20260903182426 67 0 0.0 0.0 0.00 0.00 0.00 61 1022.9
20260903181926 68 0 0.0 0.0 0.00 0.00 0.00 60 1022.8
20260903181426 68 0 0.0 0.0 0.00 0.00 0.00 60 1022.6
20260903180926 68 0 0.0 0.0 0.00 0.00 0.00 59 1022.7
20260903180425 69 0 0.0 0.0 0.00 0.00 0.00 58 1022.7
20260903175925 69 0 0.0 0.0 0.00 0.00 0.00 57 1022.6
20260903175425 69 0 0.0 0.0 0.00 0.00 0.00 57 1022.6
20260903174924 70 0 0.0 0.0 0.00 0.00 0.00 56 1022.5
20260903174424 70 0 0.0 0.0 0.00 0.00 0.00 55 1022.5
20260903173924 70 0 0.0 0.0 0.00 0.00 0.00 54 1022.5
20260903173424 71 0 0.0 0.0 0.00 0.00 0.00 53 1022.4
20260903172923 71 0 0.0 0.0 0.00 0.00 0.00 52 1022.4
20260903172423 72 0 0.0 0.0 0.00 0.00 0.00 52 1022.4
20260903171923 72 0 0.0 0.0 0.00 0.00 0.00 51 1022.5
20260903171423 72 0 0.0 0.0 0.00 0.00 0.00 50 1022.5
20260903170922 73 0 0.0 0.0 0.00 0.00 0.00 50 1022.4
20260903170422 73 0 0.0 0.0 0.00 0.00 0.00 49 1022.4
20260903165922 73 0 0.0 0.0 0.00 0.00 0.00 49 1022.5
20260903165421 74 0 0.0 0.0 0.00 0.00 0.00 48 1022.5
20260903164921 74 0 0.0 0.0 0.00 0.00 0.00 47 1022.3
20260903164421 75 0 0.0 0.0 0.00 0.00 0.00 46 1022.4
20260903163921 75 0 0.0 0.0 0.00 0.00 0.00 45 1022.4
20260903163420 76 0 0.0 0.0 0.00 0.00 0.00 44 1022.4
20260903162920 77 0 0.0 0.0 0.00 0.00 0.00 43 1022.4
20260903162420 78 0 0.0 0.0 0.00 0.00 0.00 41 1022.5
20260903161919 79 0 0.0 0.0 0.00 0.00 0.00 40 1022.5
20260903161419 81 0 0.0 0.0 0.00 0.00 0.00 39 1022.4
20260903160919 82 0 0.0 0.0 0.00 0.00 0.00 38 1022.4
20260903160419 82 0 0.0 0.0 0.00 0.00 0.00 37 1022.3
20260903155918 83 0 0.0 0.0 0.00 0.00 0.00 37 1022.3
20260903155418 83 0 0.0 0.0 0.00 0.00 0.00 36 1022.4
20260903154918 84 0 0.0 0.0 0.00 0.00 0.00 36 1022.4
20260903154417 83 0 0.0 0.0 0.00 0.00 0.00 36 1022.4
20260903153917 82 0 0.0 0.0 0.00 0.00 0.00 36 1022.3
20260903153417 82 0 0.0 0.0 0.00 0.00 0.00 36 1022.4
20260903152917 82 0 0.0 0.0 0.00 0.00 0.00 37 1022.4
20260903152416 83 0 0.0 0.0 0.00 0.00 0.00 37 1022.3
20260903151916 83 0 0.0 0.0 0.00 0.00 0.00 38 1022.4
20260903151416 84 0 0.0 0.0 0.00 0.00 0.00 37 1022.4
20260903150915 85 0 0.0 0.0 0.00 0.00 0.00 36 1022.3
20260903150415 85 0 0.0 0.0 0.00 0.00 0.00 37 1022.2
20260903145915 85 0 0.0 0.0 0.00 0.00 0.00 36 1022.3
20260903145415 85 0 0.0 0.0 0.00 0.00 0.00 37 1022.3
20260903144914 85 0 0.0 0.0 0.00 0.00 0.00 36 1022.4
20260903144414 86 0 0.0 0.0 0.00 0.00 0.00 34 1022.1
20260903143914 89 0 0.0 0.0 0.00 0.00 0.00 33 1022.3
20260903143413 91 0 0.0 0.0 0.00 0.00 0.00 33 1022.5
20260903142913 92 0 0.0 0.0 0.00 0.00 0.00 33 1022.4
20260903142413 90 0 0.0 0.0 0.00 0.00 0.00 35 1022.5
20260903141913 88 0 0.0 0.0 0.00 0.00 0.00 36 1022.6
20260903141412 86 0 0.0 0.0 0.00 0.00 0.00 38 1022.6
20260903140912 83 0 0.0 0.0 0.00 0.00 0.00 39 1022.8
20260903140412 83 0 0.0 0.0 0.00 0.00 0.00 39 1022.8
20260903135911 81 0 0.0 0.0 0.00 0.00 0.00 40 1022.8
20260903135411 80 0 0.0 0.0 0.00 0.00 0.00 40 1022.8
20260903134911 78 0 0.0 0.0 0.00 0.00 0.00 40 1022.5
20260903134411 78 0 0.0 0.0 0.00 0.00 0.00 40 1022.6
20260903133910 79 0 0.0 0.0 0.00 0.00 0.00 38 1022.7
20260903133410 79 0 0.0 0.0 0.00 0.00 0.00 37 1022.8
20260903132910 81 0 0.0 0.0 0.00 0.00 0.00 35 1022.8
20260903132409 83 0 0.0 0.0 0.00 0.00 0.00 34 1022.7
20260903131909 85 0 0.0 0.0 0.00 0.00 0.00 35 1022.6
20260903131409 84 0 0.0 0.0 0.00 0.00 0.00 35 1022.7
20260903130909 82 0 0.0 0.0 0.00 0.00 0.00 38 1022.6
20260903130408 81 0 0.0 0.0 0.00 0.00 0.00 39 1022.6
20260903125908 81 0 0.0 0.0 0.00 0.00 0.00 38 1022.5
20260903125408 81 0 0.0 0.0 0.00 0.00 0.00 37 1022.5
20260903124907 82 0 0.0 0.0 0.00 0.00 0.00 36 1022.5
20260903124407 83 0 0.0 0.0 0.00 0.00 0.00 35 1022.4
20260903123907 85 0 0.0 0.0 0.00 0.00 0.00 34 1022.4
20260903123407 87 0 0.0 0.0 0.00 0.00 0.00 33 1022.5
20260903122906 88 0 0.0 0.0 0.00 0.00 0.00 31 1022.6
20260903122406 89 0 0.0 0.0 0.00 0.00 0.00 30 1022.7
20260903121906 91 0 0.0 0.0 0.00 0.00 0.00 32 1022.8
20260903121405 89 0 0.0 0.0 0.00 0.00 0.00 33 1022.9
20260903120905 89 0 0.0 0.0 0.00 0.00 0.00 33 1022.7
20260903120405 89 0 0.0 0.0 0.00 0.00 0.00 32 1022.8
20260903115905 91 0 0.0 0.0 0.00 0.00 0.00 32 1022.7
20260903115404 90 0 0.0 0.0 0.00 0.00 0.00 34 1022.8
20260903114904 88 0 0.0 0.0 0.00 0.00 0.00 35 1022.8